[[{"header":{"parameterUnit":"m.s-1","parameterCategory":1,"la1":30.2991,"la2":30.254,"lo1":-89.0895,"lo2":-89.0444,"dy":0.0017,"dx":0.0017,"nx":28,"ny":28,"refTime":"2025-06-08T03:00:00:Z","depth":0,"parameterNumber":2,"parameterNumberName":"U-component_of_WINDS"},"data":[0,0,0,0,0,0,0,0,0,0,0,0,0,0,0,0,0,0,0,0,0,0,0,0,0,0,0,0,0,0,0,0,0,0,0,0,0,0,0,0,0,0,0,0,0,0,0,0,0,0,0,0,0,0,0,0,0,0,5.1449,5.1452,0,5.1669,5.1672,5.1674,5.1648,5.1644,5.1641,5.1637,5.1864,5.1873,5.1882,0,0,0,0,0,0,0,0,0,0,0,0,0,5.1006,5.1014,5.1449,5.1452,5.1455,5.1669,5.1672,5.1675,5.1648,5.1644,5.164,5.1636,5.1861,5.1872,5.1883,0,0,0,0,0,0,0,0,0,0,0,0,0,5.1209,5.1017,5.1449,5.1467,5.1471,5.1668,5.1672,5.1676,5.1649,5.1644,5.1639,5.1634,5.1857,5.1871,5.1885,5.2078,0,0,5.1928,5.1934,0,0,0,0,0,0,0,0,5.1198,5.1226,5.1462,5.1466,5.1471,5.1625,5.1599,5.1811,5.1651,5.1582,5.1637,5.1631,5.1789,5.1808,5.1861,5.2089,5.2098,5.1929,5.1937,5.1943,5.1947,0,0,0,0,0,0,0,5.1184,5.1216,5.1536,5.1465,5.1471,5.1464,5.1487,5.1639,5.1713,5.1587,5.1586,5.1612,5.1791,5.1848,5.1867,5.2102,5.1929,5.1941,5.195,5.1955,5.2494,5.25,0,0,0,0,0,0,5.1165,5.1204,5.1529,5.1543,5.1318,5.1477,5.1502,5.1581,5.1711,5.1726,5.1616,5.161,5.1827,5.185,5.1874,5.2106,5.1943,5.1956,5.1965,5.2488,5.2496,5.2502,0,0,0,0,0,0,5.1156,5.1194,5.152,5.1373,5.1414,5.149,5.1579,5.1588,5.1646,5.1733,5.1746,5.1661,5.1823,5.1855,5.2026,5.2113,5.1963,5.1976,5.2481,5.2491,5.2499,5.2572,0,0,0,0,0,0,5.1143,5.1191,5.1265,5.1375,5.1422,5.1669,5.1584,5.1597,5.167,5.1663,5.1779,5.1793,5.1822,5.2006,5.204,5.213,5.1987,5.2474,5.2486,5.2496,5.2562,5.2582,5.2599,0,0,0,0,0,5.1127,5.1278,5.1269,5.1309,5.1517,5.1674,5.1701,5.1731,5.1677,5.1752,5.1807,5.1789,5.2099,5.2024,5.2062,5.2157,5.2469,5.2482,5.2495,5.2554,5.2578,5.2599,0,0,0,0,0,0,5.1178,5.1293,5.1284,5.1476,5.1565,5.1669,5.1765,5.1757,5.1864,5.1853,5.1886,5.1913,5.2085,5.2139,5.2053,5.2349,5.2276,5.2298,5.2307,5.2332,5.235,5.2332,5.1998,0,0,0,0,0,5.1211,5.1329,5.1424,5.1584,5.1629,5.1689,5.1759,5.1774,5.1868,5.1906,5.1974,5.2067,5.2184,5.2261,5.2375,5.257,5.2593,5.2655,5.2673,5.2688,5.2706,5.281,5.2837,5.2546,5.2546,5.2545,0,0,5.1282,5.1359,5.1432,5.1596,5.1667,5.1787,5.1721,5.1853,5.1942,5.1926,5.2091,5.2145,5.225,5.2433,5.2518,5.2483,5.2792,5.2705,5.2717,5.2726,5.2826,5.2853,5.2878,5.2555,5.2553,5.2552,0,0,5.147,5.1542,5.1681,5.1753,5.1861,5.19,5.1933,5.2039,5.2073,5.2239,5.2229,5.2336,5.2539,5.2613,5.2678,5.2892,5.2878,5.2929,5.3025,5.3126,5.3149,5.3169,5.3242,5.3269,5.2946,5.2947,5.2947,0,5.1544,5.1725,5.1754,5.1886,5.1957,5.1947,5.2087,5.2156,5.2296,5.2345,5.2305,5.2557,5.2627,5.2826,5.2878,5.2932,5.2969,5.2914,5.3143,5.3164,5.3183,5.3253,5.3281,5.2952,5.2951,5.2951,5.295,0,5.1809,5.1934,5.2034,5.2167,5.2249,5.2385,5.2433,5.2514,5.2521,5.2564,5.2732,5.2816,5.2944,5.2993,5.3003,5.3193,5.3168,5.3136,5.3062,5.3216,5.3282,5.3309,5.2959,5.2957,5.2956,5.2954,0,0,5.2035,5.2181,5.2217,5.2275,5.2393,5.249,5.2625,5.2749,5.2816,5.2913,5.3024,5.3195,5.3165,5.3238,5.3256,5.3345,5.3505,5.3301,5.3304,5.3333,5.3715,5.3736,5.3767,5.3497,5.3502,5.3507,5.3705,0,5.2233,5.2469,5.2498,5.2707,5.2822,5.2814,5.293,5.3014,5.3058,5.3161,5.321,5.3329,5.3282,5.3325,5.3413,5.3467,5.3581,5.3453,5.3599,5.3604,5.357,5.3802,5.3826,5.4009,5.3731,5.3736,5.3739,0,5.2495,5.2596,5.2817,5.2915,5.2964,5.3069,5.3183,5.3283,5.3378,5.3403,5.3483,5.3489,5.3626,5.3549,5.3738,5.365,5.3711,5.3747,5.3755,5.3767,5.3679,5.3817,5.4068,5.4094,5.3781,5.3778,5.3775,0,5.2633,5.2826,5.2981,5.3033,5.3153,5.3225,5.3279,5.3368,5.344,5.3541,5.3587,5.3704,5.3767,5.3856,5.3893,5.3834,5.4078,5.4004,5.41,5.4099,5.415,5.4146,5.4411,5.4196,5.4195,5.4195,5.4194,0,5.2849,5.2983,5.3044,5.314,5.329,5.3321,5.3469,5.3519,5.3598,5.3703,5.3704,5.3802,5.3846,5.3951,5.3981,5.413,5.4159,5.4182,5.4188,5.418,5.4177,5.4219,5.4206,5.4202,5.42,5.4199,5.4198,0,5.3028,5.3075,5.3243,5.3342,5.337,5.3476,5.356,5.3652,5.3694,5.3826,5.3858,5.3924,5.4047,5.4093,5.4244,5.4263,5.4435,5.4432,5.4402,5.4403,5.4495,5.4484,5.4793,5.4834,5.4595,5.4597,5.4599,0,5.316,5.3263,5.3372,5.3442,5.3497,5.361,5.3682,5.3718,5.3793,5.3907,5.3985,5.4107,5.4206,5.4403,5.4464,5.4578,5.4576,5.4676,5.4593,5.4581,5.4573,5.4565,5.4573,5.4691,5.4693,5.4695,5.4697,0,5.339,5.3407,5.3512,5.3624,5.3711,5.3801,5.3889,5.3946,5.3994,5.4079,5.4204,5.428,5.4433,5.4553,5.467,5.4724,5.4718,5.4723,5.475,5.4742,5.4718,5.4728,5.444,5.4715,5.4713,5.4712,5.4711,5.471,5.3548,5.3637,5.3727,5.3842,5.3912,5.3993,5.4083,5.4135,5.424,5.4365,5.438,5.4513,5.4603,5.4759,5.4819,5.4923,5.4896,5.4937,5.4946,5.4955,5.4959,5.4705,5.4945,5.4944,5.4944,5.4944,5.4943,0,5.3774,5.383,5.3937,5.4058,5.4148,5.4135,5.4231,5.4307,5.4424,5.4508,5.4605,5.4746,5.4863,5.4932,5.5048,5.5118,5.5118,5.5147,5.514,5.5152,5.4979,5.4942,5.5145,5.5145,5.5145,5.5145,5.5145,5.5145,5.3902,5.4051,5.4079,5.4261,5.4318,5.4447,5.4502,5.4577,5.4643,5.4801,5.4897,5.4942,5.5019,5.5141,5.5246,5.5263,5.5304,5.5335,5.535,5.5186,5.5165,5.5145,5.511,5.5345,5.5345,5.5514,5.5516,5.5517]},{"header":{"parameterUnit":"m.s-1","parameterCategory":1,"la1":30.2991,"la2":30.254,"lo1":-89.0895,"lo2":-89.0444,"dy":0.0017,"dx":0.0017,"nx":28,"ny":28,"refTime":"2025-06-08T03:00:00:Z","depth":0,"parameterNumber":3,"parameterNumberName":"V-component_of_WINDS"},"data":[0,0,0,0,0,0,0,0,0,0,0,0,0,0,0,0,0,0,0,0,0,0,0,0,0,0,0,0,0,0,0,0,0,0,0,0,0,0,0,0,0,0,0,0,0,0,0,0,0,0,0,0,0,0,0,0,0,0,2.1626,2.1627,0,2.1676,2.1677,2.1677,2.1639,2.1637,2.1635,2.1634,2.1684,2.1687,2.169,0,0,0,0,0,0,0,0,0,0,0,0,0,2.1495,2.1497,2.1626,2.1627,2.1627,2.1676,2.1677,2.1677,2.1639,2.1637,2.1635,2.1633,2.1683,2.1687,2.169,0,0,0,0,0,0,0,0,0,0,0,0,0,2.1549,2.1498,2.1626,2.1614,2.1613,2.1676,2.1677,2.1678,2.1639,2.1637,2.1634,2.1632,2.1682,2.1686,2.1691,2.1767,0,0,2.1704,2.1706,0,0,0,0,0,0,0,0,2.1546,2.1554,2.1615,2.1615,2.1614,2.1649,2.1649,2.1708,2.164,2.1629,2.1634,2.1631,2.1674,2.1679,2.1694,2.177,2.1772,2.1704,2.1707,2.1709,2.171,0,0,0,0,0,0,0,2.1542,2.1551,2.1646,2.1616,2.1616,2.1605,2.161,2.166,2.1665,2.163,2.1627,2.1634,2.1674,2.169,2.1695,2.1773,2.1704,2.1708,2.1711,2.1712,2.1912,2.1915,0,0,0,0,0,0,2.154,2.1549,2.1644,2.1647,2.1573,2.161,2.1615,2.164,2.1665,2.1666,2.1636,2.1632,2.1684,2.169,2.1697,2.1787,2.1709,2.1713,2.1715,2.191,2.1913,2.1916,0,0,0,0,0,0,2.1537,2.1549,2.1642,2.1597,2.1608,2.1615,2.1643,2.1642,2.1659,2.1669,2.167,2.1652,2.1682,2.169,2.175,2.1789,2.1715,2.1719,2.1907,2.1911,2.1914,2.197,0,0,0,0,0,0,2.1534,2.1548,2.1578,2.1598,2.1611,2.1696,2.1645,2.1645,2.1666,2.1662,2.1684,2.1685,2.1681,2.1744,2.1754,2.1793,2.1722,2.1903,2.1908,2.1913,2.1965,2.1976,2.1985,0,0,0,0,0,2.1529,2.1592,2.158,2.1592,2.1649,2.1698,2.1705,2.1699,2.167,2.1699,2.1706,2.1685,2.1782,2.175,2.1762,2.1803,2.1901,2.1907,2.1913,2.1961,2.1974,2.1985,0,0,0,0,0,0,2.1576,2.1594,2.1581,2.1652,2.1674,2.1691,2.1729,2.1713,2.1743,2.1737,2.1727,2.1733,2.1795,2.1804,2.1768,2.1877,2.1837,2.1846,2.1869,2.1882,2.1891,2.1888,2.1726,0,0,0,0,0,2.1595,2.1634,2.1647,2.1709,2.172,2.1723,2.1744,2.1737,2.1759,2.1768,2.1778,2.18,2.1835,2.1859,2.1892,2.1966,2.197,2.1999,2.2009,2.2017,2.2025,2.2064,2.2077,2.1936,2.1936,2.1936,0,0,2.1634,2.1649,2.1674,2.1719,2.1735,2.1774,2.1731,2.1775,2.1804,2.1774,2.1831,2.1839,2.1863,2.1929,2.1959,2.1939,2.2065,2.2025,2.2032,2.2035,2.2071,2.2085,2.2097,2.194,2.1939,2.1939,0,0,2.1726,2.1741,2.1793,2.181,2.1834,2.1835,2.1848,2.1867,2.1872,2.1928,2.1906,2.194,2.2002,2.2019,2.2036,2.2132,2.2113,2.2143,2.2195,2.2233,2.2244,2.2253,2.2287,2.23,2.215,2.215,2.215,0,2.1771,2.1831,2.1822,2.1868,2.1888,2.1862,2.1915,2.1931,2.1965,2.1979,2.1956,2.2031,2.2045,2.2115,2.2138,2.2153,2.2166,2.214,2.2243,2.2253,2.2262,2.2294,2.2306,2.2154,2.2153,2.2153,2.2153,0,2.1885,2.1927,2.1966,2.2,2.2024,2.2073,2.2071,2.2096,2.2086,2.2089,2.2146,2.2162,2.2197,2.2213,2.2204,2.2281,2.2268,2.2244,2.2203,2.2279,2.2309,2.2321,2.2159,2.2157,2.2156,2.2156,0,0,2.2009,2.2036,2.2051,2.2065,2.2089,2.2121,2.2168,2.2202,2.2224,2.2248,2.2286,2.2338,2.2316,2.2335,2.2327,2.236,2.2434,2.2332,2.2332,2.235,2.2519,2.2537,2.2552,2.2422,2.2424,2.2426,2.2517,0,2.2102,2.2185,2.2177,2.2255,2.2293,2.2268,2.2309,2.2327,2.2331,2.2363,2.2366,2.2403,2.2371,2.2382,2.2414,2.2419,2.2468,2.2412,2.2457,2.2459,2.2453,2.2568,2.2587,2.2672,2.2529,2.2531,2.2532,0,2.2221,2.2249,2.2331,2.2348,2.2363,2.24,2.2431,2.2462,2.2482,2.2482,2.2502,2.2489,2.2535,2.2493,2.2556,2.2518,2.2535,2.254,2.2544,2.2548,2.2501,2.2575,2.27,2.2712,2.2551,2.2549,2.2548,0,2.2303,2.2361,2.2417,2.243,2.2451,2.2478,2.2488,2.2505,2.2526,2.2552,2.2565,2.2597,2.2614,2.2638,2.2632,2.2602,2.2697,2.2654,2.2697,2.2698,2.2719,2.2718,2.2849,2.273,2.273,2.273,2.273,0,2.2408,2.2458,2.2454,2.2488,2.2544,2.2535,2.259,2.2596,2.2612,2.2647,2.2627,2.2659,2.265,2.2683,2.2679,2.2731,2.2739,2.274,2.2738,2.2742,2.2742,2.2754,2.2748,2.2733,2.2733,2.2732,2.2731,0,2.2509,2.2508,2.2567,2.2582,2.2587,2.2628,2.264,2.2672,2.2673,2.2717,2.2727,2.2729,2.2766,2.2763,2.2804,2.2801,2.2866,2.2857,2.2859,2.2857,2.2901,2.2897,2.3044,2.3063,2.2933,2.2934,2.2935,0,2.2576,2.2614,2.2633,2.2655,2.2667,2.2702,2.2723,2.2715,2.2737,2.2762,2.2791,2.2825,2.2853,2.2912,2.2917,2.2948,2.294,2.2989,2.2944,2.2947,2.294,2.2938,2.2942,2.2998,2.3,2.3001,2.3002,0,2.2694,2.2691,2.2722,2.2753,2.2779,2.2802,2.2824,2.2843,2.2836,2.2862,2.2899,2.2921,2.2962,2.2997,2.3026,2.3035,2.3018,2.3016,2.3027,2.3032,2.3031,2.3032,2.2883,2.3013,2.3012,2.3011,2.301,2.301,2.278,2.2813,2.2831,2.2866,2.2881,2.2901,2.2932,2.2936,2.2967,2.3001,2.2993,2.3035,2.3053,2.309,2.3102,2.3134,2.3116,2.3133,2.3137,2.3142,2.3147,2.3026,2.3139,2.3139,2.3139,2.3138,2.3138,0,2.2897,2.2907,2.2939,2.297,2.2997,2.2978,2.3,2.3024,2.3061,2.3079,2.3106,2.3148,2.3181,2.3188,2.3219,2.3243,2.3236,2.3252,2.325,2.3252,2.3161,2.3148,2.3257,2.3257,2.3257,2.3257,2.3257,2.3257,2.2961,2.3015,2.3014,2.3075,2.3084,2.3125,2.314,2.3158,2.3172,2.322,2.3247,2.3251,2.3264,2.3296,2.3325,2.3326,2.3338,2.3358,2.3355,2.327,2.3259,2.3247,2.3235,2.336,2.336,2.3444,2.3444,2.3445]}]]